Home   Weather   Kempten   Past weeks

Flag for Germany Past Weather in Kempten, Bavaria, Germany — Yesterday and Last 2 Weeks

Now
18 °F

Light snow. Ice fog.


Feels Like: 4 °F
Forecast: 11 / 18 °F
Wind: 14 mph from East

Location: Altenstadt Airport

Current Time: Jan 17, 2017 at 12:17:52 pm

Latest Report: Jan 17, 2017 at 11:32 am


Visibility: 2 mi

Pressure: 30.30 "Hg (27.78 "Hg at 673m altitude)

Humidity: 93%

Dew Point: 16 °F

Location of KemptenLocation

Past Weather in Kempten — Graph

°F

Kempten Temperature Yesterday

Maximum temperature yesterday: 25 °F (at 12:20 pm)
Minimum temperature yesterday: 19 °F (at 3:20 am)
Average temperature yesterday: 22 °F

High & Low Weather Summary for the Past Weeks

 TemperatureHumidityPressure
High37 °F (Jan 2, 12:20 pm)100% (Jan 3, 8:00 am)30.57 "Hg (Jan 3, 8:00 am)
Low-6 °F (Jan 7, 1:20 am)59% (Jan 4, 1:20 am)29.39 "Hg (Jan 13, 1:20 am)
Average25 °F86%30.05 "Hg
* Reported Jan 2 10:20 am — Jan 17 10:20 am, Kempten, Weather by CustomWeather, © 2017

Note: Actual official high and low records may vary slightly from our data, if they occured in-between our weather recording intervals... More about our weather records

Advertising

Kempten Weather History for the Previous 24 Hours

Scroll right to see more
 ConditionsComfort  
Time TempWeatherWind HumidityBarometerVisibility
10:20 am
Tue, Jan 17
18 °FLight snow. Partly sunny.13 mph93%30.30 "Hg4 mi
9:42 am18 °FLight snow. Partly sunny.13 mph93%30.30 "Hg4 mi
9:20 am18 °FLight snow. Ice fog.14 mph93%30.30 "Hg3 mi
9:04 am18 °FLight snow. Ice fog.14 mph93%30.27 "Hg2 mi
8:20 am18 °FLight snow. Ice fog.14 mph93%30.27 "Hg3 mi
7:43 am18 °FLight snow. Ice fog.13 mph93%30.27 "Hg2 mi
7:20 am18 °FLight snow. Ice fog.14 mph100%30.27 "Hg3 mi
6:20 am19 °FLight snow. Passing clouds.12 mph93%30.24 "Hg3 mi
5:20 am19 °FLight snow. Low clouds.15 mph93%30.21 "Hg4 mi
4:20 am19 °FCold.18 mph93%30.21 "HgN/A
3:20 am21 °FCold.13 mph93%30.21 "HgN/A
2:20 am21 °FCold.16 mph93%30.18 "HgN/A
1:20 am21 °FCold.14 mph93%30.18 "HgN/A
12:20 am21 °FCold.9 mph93%30.18 "HgN/A
11:20 pm
Mon, Jan 16
21 °FCold.10 mph93%30.18 "HgN/A
10:20 pm21 °FCold.13 mph93%30.18 "HgN/A
9:20 pm21 °FCold.14 mph93%30.15 "HgN/A
8:20 pm21 °FSnow. Ice fog.14 mph93%30.15 "Hg2 mi
7:20 pm21 °FLight snow. Passing clouds.14 mph86%30.15 "HgN/A
6:20 pm21 °FLight snow. Partly cloudy.13 mph93%30.12 "Hg4 mi
5:20 pm21 °FSnow. Ice fog.8 mph93%30.12 "Hg1 mi
4:20 pm23 °FSnow. Ice fog.3 mph86%30.09 "Hg1 mi
3:40 pm23 °FLight snow. Ice fog.5 mph80%30.09 "Hg2 mi
3:20 pm23 °FLight snow. Partly sunny.3 mph80%30.09 "Hg4 mi
2:20 pm23 °FLight snow. Partly sunny.No wind74%30.07 "HgN/A
1:20 pm25 °FLight snow. Broken clouds.1 mph74%30.07 "HgN/A
12:20 pm25 °FSnow flurries. Broken clouds.1 mph74%30.09 "HgN/A
Weather by CustomWeather, © 2017

See weather overviewHow to use our weather pages